Погода в Гыбдане

Россия / Удмуртская Республика     56°33′36″N   51°37′42″E
темп.,
°C
ветер,
м/с
пор.,
м/с
влажн.,
%
обл.,
%
осадки,
мм/ч
давл.,
гПа
погр.,
м
27 января, ср
ср2701:00−7ю4995100 0.1 1025379
04:00−8ююз4994100 0.1 1024345
07:00−5ююз41095100 0.1 1024381
10:00−3ю51194100 0.2 1024517
13:00−3ю61194100 0.1 1023490
16:00−3ю61293100 0.1 1022548
19:00−4ююз61293100 0.1 1022617
22:00−5ююз61393100 0.1 1021571
28 января, чт
чт2801:00−6ююз61490100 0.0 1021518
04:00−6ююз61491100 0.0 1020534
07:00−6ююз61391100 0.0 1019529
10:00−5ююз61390100 0.0 1019500
13:00−4ююз51189100 0.1 1019439
16:00−5ююз4991100 0.1 1019407
19:00−6ю4994100 0.0 1020284
22:00−7ю4894100 0.0 1019258
29 января, пт
пт2901:00−8ю41094100 0.0 1019272
04:00−11ююв369696 0.0 1019135
07:00−10юв3793100 0.0 1017155
10:00−8юв4890100 0.0 1016245
13:00−6юв4989100 0.0 1014301
16:00−5юв4989100 0.0 1012347
19:00−6юв41289100 0.0 1010434
22:00−5ююв51195100 0.6 1009630
30 января, сб
сб3001:00−6ююв41094100 0.3 1009400
04:00−7ююв41195100 0.4 1008378
07:00−5ю5109598 0.1 1008512
10:00−3ю5109399 0.1 1007644
13:00−2ююв61193100 0.1 1006814
16:00−1ююв71495100 0.6 1003965
19:00−1ю81691100 1.5 10021062
22:00−5ююз5138697 2.8 1004515
31 января, вс
вс3101:00−8ююз5129122 0.0 1007378
04:00−9ююз4119530 0.0 1009292
07:00−10ю499594 0.0 1010245
10:00−8ю4109396 0.0 1010303
13:00−2ююв51196100 0.6 1009530
16:00+1ю71497100 2.5 1007946
19:00−1ю81881100 0.9 1006938
22:00−1ю91892100 1.9 10051054